Sturgis, MI

4:50 PM EST on December 07, 2019 (GMT -0500)
Kirsch Municipal

Weather History for KIRS - November, 2019

Change the Weather History Date:

Tuesday, November 12, 2019

  Actual Average (WUND) Record (WUND)
Temperature  
Mean Temperature 18 °F -  
Max Temperature 25 °F - - (-1)
Min Temperature 9 °F - - (-1)
Degree Days  
Heating Degree Days 48    
Moisture  
Dew Point 13 °F    
Average Humidity 75    
Maximum Humidity 86    
Minimum Humidity 56    
Precipitation  
Precipitation 0.00 in - - ()
Sea Level Pressure  
Sea Level Pressure 30.31 in    
Wind  
Wind Speed 6 mph ()    
Max Wind Speed 13 mph    
Max Gust Speed 18 mph    
Visibility 8.2 miles    
Events Snow    
Averages and records for this station are not official NWS values.
T = Trace of Precipitation, MM = Missing Value Source: Averaged Metar Reports

Daily Weather History Graph

Daily Weather History Graph

Search for Another Location

Airport or City:

Astronomy

Nov. 12, 2019 Rise Set
Actual Time 7:27 AM EST 5:24 PM EST
Civil Twilight 6:57 AM EST 5:53 PM EST
Nautical Twilight 6:24 AM EST 6:27 PM EST
Astronomical Twilight 5:51 AM EST 6:59 PM EST
Moon 5:51 PM EST (11/12) 7:17 AM EST (11/12)
Length of Visible Light 10h 56m
Length of Day
9h 56m
Full, 100% of the Moon is Illuminated
Nov 12
Full
Nov 19
Last Quarter
Nov 26
New
Dec 4
First Quarter
Dec 12
Full

Hourly Weather History & Observations

Time (EST) Temp. Windchill Dew Point Humidity Pressure Visibility Wind Dir Wind Speed Gust Speed Precip Events Conditions
12:35 AM 22.1 °F 15.9 °F 17.2 °F 82% 30.20 in 10.0 mi NW 4.6 mph - N/A   Overcast
12:36 AM 22.3 °F 16.1 °F 17.2 °F 81% 30.20 in 10.0 mi NW 4.6 mph - N/A   Overcast
12:55 AM 22.1 °F 15.9 °F 17.8 °F 83% 30.20 in 10.0 mi NW 4.6 mph - N/A   Overcast
12:56 AM 22.1 °F 15.9 °F 17.8 °F 83% 30.20 in 10.0 mi NW 4.6 mph - N/A   Overcast
1:15 AM 21.2 °F 16.4 °F 17.1 °F 84% 30.20 in 10.0 mi NW 3.5 mph - N/A   Overcast
1:16 AM 21.2 °F 14.9 °F 17.1 °F 84% 30.20 in 10.0 mi NW 4.6 mph - N/A   Overcast
1:35 AM 21.9 °F 15.7 °F 18.1 °F 85% 30.21 in 10.0 mi NW 4.6 mph - N/A   Overcast
1:55 AM 22.5 °F 15.1 °F 18.3 °F 84% 30.20 in 5.0 mi NNW 5.8 mph - N/A Snow Light Snow
1:56 AM 22.6 °F 15.3 °F 18.3 °F 83% 30.20 in 5.0 mi NNW 5.8 mph - N/A Snow Light Snow
2:15 AM 23.0 °F 14.7 °F 17.8 °F 80% 30.20 in 4.0 mi NNW 6.9 mph - N/A Snow Light Snow
2:35 AM 23.0 °F 14.7 °F 18.5 °F 83% 30.20 in 1.5 mi NNW 6.9 mph - N/A Snow Light Snow
2:36 AM 23.0 °F 15.8 °F 18.5 °F 83% 30.20 in 1.5 mi NNW 5.8 mph - N/A Snow Light Snow
2:55 AM 23.4 °F 15.2 °F 19.0 °F 84% 30.20 in 2.5 mi NNW 6.9 mph - N/A Snow Light Snow
3:15 AM 23.4 °F 13.5 °F 18.3 °F 81% 30.20 in 3.0 mi NW 9.2 mph - N/A Snow Light Snow
3:35 AM 22.8 °F 13.6 °F 18.1 °F 82% 30.20 in 4.0 mi NW 8.1 mph - N/A Snow Light Snow
3:55 AM 21.9 °F 11.7 °F 16.3 °F 79% 30.21 in 7.0 mi NW 9.2 mph - N/A   Overcast
4:15 AM 21.6 °F 12.1 °F 15.8 °F 78% 30.21 in 7.0 mi NW 8.1 mph - N/A   Overcast
4:16 AM 21.6 °F 11.3 °F 15.8 °F 78% 30.21 in 7.0 mi NW 9.2 mph - N/A   Overcast
4:35 AM 21.0 °F 11.4 °F 15.1 °F 78% 30.22 in 10.0 mi NW 8.1 mph - N/A   Overcast
4:55 AM 21.2 °F 8.9 °F 15.4 °F 78% 30.23 in 10.0 mi NW 12.7 mph 17.3 mph N/A   Overcast
4:56 AM 21.2 °F 10.1 °F 15.3 °F 78% 30.23 in 10.0 mi NW 10.4 mph 17.3 mph N/A   Overcast
5:15 AM 21.0 °F 9.9 °F 14.7 °F 77% 30.24 in 10.0 mi NNW 10.4 mph 18.4 mph N/A   Overcast
5:16 AM 21.0 °F 9.9 °F 14.5 °F 76% 30.24 in 10.0 mi NNW 10.4 mph 16.1 mph N/A   Mostly Cloudy
5:35 AM 20.3 °F 11.5 °F 13.6 °F 75% 30.24 in 10.0 mi NNW 6.9 mph 10.4 mph N/A   Scattered Clouds
5:55 AM 19.4 °F 8.6 °F 13.1 °F 76% 30.25 in 10.0 mi NNW 9.2 mph - N/A   Clear
5:56 AM 19.4 °F 8.6 °F 13.1 °F 76% 30.25 in 10.0 mi NNW 9.2 mph - N/A   Clear
6:15 AM 19.0 °F 9.0 °F 12.2 °F 75% 30.26 in 10.0 mi NNW 8.1 mph - N/A   Clear
6:16 AM 18.9 °F 8.0 °F 12.0 °F 75% 30.26 in 10.0 mi NNW 9.2 mph - N/A   Clear
6:35 AM 18.3 °F 7.3 °F 11.7 °F 75% 30.27 in 10.0 mi NNW 9.2 mph - N/A   Clear
6:36 AM 18.3 °F 8.2 °F 11.7 °F 75% 30.27 in 10.0 mi NNW 8.1 mph - N/A   Clear
6:55 AM 18.0 °F 7.7 °F 11.7 °F 76% 30.28 in 10.0 mi NNW 8.1 mph - N/A   Clear
7:15 AM 17.2 °F 7.8 °F 11.5 °F 78% 30.29 in 10.0 mi NNW 6.9 mph - N/A   Clear
7:35 AM 16.0 °F 7.4 °F 10.6 °F 79% 30.30 in 10.0 mi NNW 5.8 mph - N/A   Clear
7:55 AM 16.5 °F 8.1 °F 10.8 °F 78% 30.30 in 10.0 mi NNW 5.8 mph - N/A   Clear
8:15 AM 16.9 °F 8.5 °F 10.9 °F 77% 30.31 in 10.0 mi NNW 5.8 mph - N/A   Scattered Clouds
8:35 AM 17.8 °F 9.6 °F 11.1 °F 75% 30.32 in 10.0 mi NNW 5.8 mph - N/A   Scattered Clouds
8:36 AM 17.8 °F 8.5 °F 11.1 °F 75% 30.32 in 10.0 mi NNW 6.9 mph - N/A   Scattered Clouds
8:55 AM 19.8 °F 11.9 °F 12.2 °F 72% 30.33 in 10.0 mi North 5.8 mph - N/A   Mostly Cloudy
9:15 AM 20.7 °F 14.2 °F 13.3 °F 73% 30.34 in 10.0 mi NW 4.6 mph - N/A   Overcast
9:16 AM 20.7 °F 14.2 °F 13.3 °F 73% 30.34 in 10.0 mi NW 4.6 mph - N/A   Overcast
9:35 AM 21.0 °F 13.4 °F 14.7 °F 77% 30.34 in 1.0 mi NW 5.8 mph - N/A Snow Light Snow
9:55 AM 21.7 °F 14.3 °F 15.6 °F 77% 30.35 in 1.0 mi WNW 5.8 mph - N/A Snow Light Snow
10:15 AM 22.1 °F 14.7 °F 16.5 °F 79% 30.35 in 0.8 mi NW 5.8 mph - N/A Snow Snow
10:35 AM 22.8 °F 15.5 °F 16.7 °F 77% 30.35 in 1.0 mi WNW 5.8 mph - N/A Snow Light Snow
10:36 AM 22.8 °F 15.5 °F 16.7 °F 77% 30.35 in 1.0 mi NW 5.8 mph - N/A Snow Light Snow
10:55 AM 23.4 °F 17.4 °F 15.1 °F 71% 30.35 in 2.5 mi NW 4.6 mph - N/A Snow Light Snow
11:15 AM 24.1 °F 14.4 °F 15.4 °F 70% 30.35 in 4.0 mi WNW 9.2 mph - N/A Snow Light Snow
11:35 AM 23.5 °F 12.4 °F 14.2 °F 67% 30.35 in 5.0 mi NNW 11.5 mph - N/A Snow Light Snow
11:36 AM 23.5 °F 13.0 °F 14.0 °F 67% 30.35 in 5.0 mi NW 10.4 mph - N/A Snow Light Snow
11:55 AM 24.8 °F 14.0 °F 12.6 °F 60% 30.35 in 10.0 mi NNW 11.5 mph 17.3 mph N/A   Mostly Cloudy
12:15 PM 23.0 °F 14.7 °F 14.4 °F 70% 30.35 in 7.0 mi North 6.9 mph - N/A Snow Light Snow
12:35 PM 23.0 °F 13.1 °F 12.4 °F 64% 30.35 in 7.0 mi NNW 9.2 mph - N/A Snow Light Snow
12:55 PM 24.4 °F 17.5 °F 13.3 °F 63% 30.34 in 10.0 mi West 5.8 mph - N/A   Mostly Cloudy
12:56 PM 24.4 °F 17.5 °F 13.5 °F 63% 30.34 in 10.0 mi WNW 5.8 mph - N/A   Mostly Cloudy
1:15 PM 23.0 °F 13.1 °F 16.0 °F 74% 30.35 in 2.0 mi NW 9.2 mph - N/A Snow Light Snow
1:35 PM 22.6 °F 14.3 °F 13.6 °F 68% 30.34 in 10.0 mi NNW 6.9 mph - N/A   Mostly Cloudy
1:55 PM 23.7 °F 14.0 °F 14.5 °F 68% 30.34 in 5.0 mi NW 9.2 mph - N/A Snow Light Snow
1:56 PM 23.7 °F 13.3 °F 14.7 °F 69% 30.34 in 4.0 mi NW 10.4 mph - N/A Snow Light Snow
2:15 PM 22.8 °F 12.9 °F 14.7 °F 71% 30.35 in 3.0 mi NW 9.2 mph - N/A Snow Light Snow
2:35 PM 22.5 °F 14.1 °F 14.2 °F 71% 30.34 in 10.0 mi NW 6.9 mph - N/A Snow Light Snow
2:55 PM 24.8 °F 15.3 °F 12.9 °F 61% 30.34 in 10.0 mi WNW 9.2 mph - N/A   Scattered Clouds
2:56 PM 25.0 °F 14.2 °F 13.1 °F 61% 30.34 in 10.0 mi WNW 11.5 mph - N/A   Mostly Cloudy
3:15 PM 23.9 °F 13.5 °F 11.3 °F 59% 30.34 in 10.0 mi NW 10.4 mph 16.1 mph N/A   Mostly Cloudy
3:35 PM 23.5 °F 13.0 °F 12.4 °F 62% 30.34 in 10.0 mi WNW 10.4 mph 17.3 mph N/A   Scattered Clouds
3:55 PM 23.5 °F 17.6 °F 11.8 °F 61% 30.35 in 10.0 mi WNW 4.6 mph - N/A   Clear
4:15 PM 23.5 °F 16.4 °F 9.9 °F 56% 30.35 in 10.0 mi WNW 5.8 mph - N/A   Clear
4:16 PM 23.5 °F 15.4 °F 9.7 °F 56% 30.35 in 10.0 mi WNW 6.9 mph - N/A   Clear
4:35 PM 23.4 °F 13.5 °F 10.2 °F 57% 30.36 in 10.0 mi NW 9.2 mph - N/A   Scattered Clouds
4:36 PM 23.4 °F 12.2 °F 10.4 °F 58% 30.36 in 10.0 mi NW 11.5 mph 16.1 mph N/A   Scattered Clouds
4:55 PM 21.6 °F 10.6 °F 9.1 °F 59% 30.36 in 10.0 mi WNW 10.4 mph - N/A   Scattered Clouds
5:15 PM 20.8 °F 10.4 °F 10.2 °F 64% 30.36 in 10.0 mi NW 9.2 mph - N/A   Clear
5:35 PM 20.1 °F 12.3 °F 12.7 °F 73% 30.36 in 10.0 mi WNW 5.8 mph - N/A   Clear
5:55 PM 19.4 °F 10.4 °F 12.4 °F 74% 30.37 in 10.0 mi WNW 6.9 mph - N/A   Clear
6:15 PM 18.5 °F 11.7 °F 11.8 °F 75% 30.37 in 10.0 mi WNW 4.6 mph - N/A   Clear
6:16 PM 18.5 °F 11.7 °F 11.8 °F 75% 30.37 in 10.0 mi WNW 4.6 mph - N/A   Clear
6:35 PM 18.1 °F 11.3 °F 11.5 °F 75% 30.37 in 10.0 mi West 4.6 mph - N/A   Scattered Clouds
7:15 PM 16.3 °F 10.8 °F 10.9 °F 79% 30.37 in 10.0 mi West 3.5 mph - N/A   Clear
7:35 PM 14.0 °F 6.5 °F 10.0 °F 84% 30.38 in 10.0 mi West 4.6 mph - N/A   Clear
7:55 PM 12.9 °F 5.2 °F 9.3 °F 86% 30.38 in 10.0 mi WSW 4.6 mph - N/A   Scattered Clouds
7:56 PM 12.7 °F 5.0 °F 9.1 °F 86% 30.38 in 10.0 mi WSW 4.6 mph - N/A   Scattered Clouds
8:15 PM 12.6 °F 4.8 °F 8.8 °F 85% 30.38 in 10.0 mi WSW 4.6 mph - N/A   Scattered Clouds
8:35 PM 12.2 °F 4.3 °F 8.4 °F 85% 30.37 in 10.0 mi WSW 4.6 mph - N/A   Mostly Cloudy
8:55 PM 12.4 °F - 8.2 °F 83% 30.37 in 10.0 mi Calm Calm - N/A   Scattered Clouds
9:15 PM 12.2 °F 4.3 °F 8.2 °F 84% 30.37 in 7.0 mi SW 4.6 mph - N/A   Clear
9:35 PM 12.7 °F 6.7 °F 8.8 °F 84% 30.37 in 7.0 mi SW 3.5 mph - N/A   Scattered Clouds
9:36 PM 12.9 °F 6.9 °F 9.0 °F 84% 30.37 in 7.0 mi SW 3.5 mph - N/A   Scattered Clouds
9:55 PM 11.3 °F 1.9 °F 7.0 °F 83% 30.37 in 10.0 mi SW 5.8 mph - N/A   Scattered Clouds
9:56 PM 10.9 °F 1.4 °F 6.6 °F 83% 30.37 in 10.0 mi SW 5.8 mph - N/A   Scattered Clouds
10:15 PM 10.8 °F 2.7 °F 6.3 °F 82% 30.38 in 10.0 mi WSW 4.6 mph - N/A   Mostly Cloudy
10:35 PM 10.0 °F 3.6 °F 5.5 °F 82% 30.38 in 10.0 mi SW 3.5 mph - N/A   Mostly Cloudy
10:36 PM 10.0 °F 1.8 °F 5.5 °F 82% 30.38 in 10.0 mi WSW 4.6 mph - N/A   Mostly Cloudy
10:55 PM 10.2 °F 2.0 °F 5.4 °F 81% 30.38 in 10.0 mi WSW 4.6 mph - N/A   Mostly Cloudy
10:56 PM 10.2 °F 2.0 °F 5.2 °F 80% 30.38 in 10.0 mi WSW 4.6 mph - N/A   Mostly Cloudy
11:15 PM 10.0 °F 3.6 °F 5.2 °F 81% 30.38 in 10.0 mi SW 3.5 mph - N/A   Overcast
11:55 PM 9.9 °F 1.6 °F 4.6 °F 79% 30.37 in 10.0 mi SW 4.6 mph - N/A   Scattered Clouds